This demonstration page uses our WeatherBlox Daily Observations layout. Learn more.

Left ArrowRight Arrow

Hourly Observations for September 26, 2022

Temp ( °F °C ) Dew Point ( °F °C ) Humidity (%) Winds ( mph kmh ) Pressure ( in mb ) Visibility ( mi km ) Precip ( " mm )
12:15 am 00:15 Clear 53 11.7 50 10.1 90 90 WSW 6 9 29.82 1010 10 16 0.00 0.00
12:35 am 00:35 Partly Cloudy 54 12 50 10.1 88 88 WSW 5 7 29.82 1010 10 16 0.00 0.00
12:55 am 00:55 Partly Cloudy 54 12.4 50 10.1 86 86 WSW 6 9 29.81 1010 10 16 0.00 0.00
1:15 am 01:15 Mostly Cloudy 55 12.5 51 10.3 86 86 N 15 24 29.84 1011 10 16 0.00 0.00
1:35 am 01:35 Cloudy 56 13.3 50 10 80 80 N 12 19 29.85 1011 10 16 0.00 0.00
1:55 am 01:55 Partly Cloudy 53 11.9 49 9.5 85 85 N 5 7 29.83 1010 10 16 0.00 0.00
2:15 am 02:15 Clear 53 11.5 49 9.2 86 86 Calm 29.83 1010 10 16 0.00 0.00
2:35 am 02:35 Partly Cloudy 50 10.1 48 8.8 92 92 W 3 6 29.84 1010 10 16 0.00 0.00
2:55 am 02:55 Cloudy 51 10.6 49 9.4 92 92 W 3 6 29.84 1010 10 16 0.00 0.00
3:15 am 03:15 Mostly Cloudy 50 9.9 48 8.9 93 93 WSW 6 9 29.83 1010 10 16 0.00 0.00
3:35 am 03:35 Partly Cloudy 50 10.1 48 9 93 93 WSW 6 9 29.83 1010 10 16 0.00 0.00
3:55 am 03:55 Partly Cloudy 50 10 48 8.9 93 93 W 5 7 29.83 1010 10 16 0.00 0.00
4:15 am 04:15 Mostly Cloudy 50 9.8 47 8.5 92 92 W 5 7 29.83 1010 10 16 0.00 0.00
4:35 am 04:35 Partly Cloudy 50 9.9 47 8.5 91 91 W 6 9 29.83 1010 10 16 0.00 0.00
4:55 am 04:55 Clear 49 9.7 47 8.5 92 92 W 6 9 29.84 1011 10 16 0.00 0.00
5:15 am 05:15 Clear 50 9.9 47 8.2 89 89 W 7 11 29.84 1010 10 16 0.00 0.00
5:35 am 05:35 Clear 50 10 47 8.2 89 89 W 7 11 29.84 1010 10 16 0.00 0.00
5:55 am 05:55 Clear 49 9.7 47 8.2 90 90 W 6 9 29.84 1011 10 16 0.00 0.00
6:15 am 06:15 Clear 49 9.2 47 8.1 93 93 W 6 9 29.85 1011 10 16 0.00 0.00
6:35 am 06:35 Partly Cloudy 49 9.3 46 8 92 92 W 7 11 29.85 1011 10 16 0.00 0.00
6:55 am 06:55 Mostly Cloudy 49 9.6 46 8 90 90 W 8 13 29.86 1011 10 16 0.00 0.00
7:15 am 07:15 Partly Cloudy 49 9.5 46 7.6 88 88 W 8 13 29.86 1011 10 16 0.00 0.00
7:35 am 07:35 Clear 49 9.3 45 7.3 87 87 W 9 15 29.87 1012 10 16 0.00 0.00
7:55 am 07:55 Sunny 48 9.1 45 7.1 87 87 W 6 9 29.88 1012 10 16 0.00 0.00
8:15 am 08:15 Sunny 49 9.3 45 7.1 86 86 W 7 11 29.88 1012 10 16 0.00 0.00
8:35 am 08:35 Sunny 49 9.7 45 7.1 84 84 W 7 11 29.88 1012 10 16 0.00 0.00
8:55 am 08:55 Sunny 51 10.4 45 7.2 81 81 W 7 11 29.89 1012 10 16 0.00 0.00
9:15 am 09:15 Sunny 53 11.4 46 7.5 77 77 W 7 11 29.88 1012 10 16 0.00 0.00
9:35 am 09:35 Sunny 54 12 45 7.2 72 72 W 13 20 29.88 1012 10 16 0.00 0.00
9:55 am 09:55 Sunny 55 12.6 45 7.1 69 69 WNW 9 15 29.89 1012 10 16 0.00 0.00
10:15 am 10:15 Sunny 56 13.3 44 6.9 65 65 WNW 9 15 29.89 1012 10 16 0.00 0.00
10:35 am 10:35 Sunny 57 13.8 44 6.9 63 63 W 12 19 29.89 1012 10 16 0.00 0.00
10:55 am 10:55 Sunny 58 14.5 44 6.8 60 60 WNW 10 17 29.89 1012 10 16 0.00 0.00
11:15 am 11:15 Sunny 59 15 44 6.5 57 57 WNW 12 19 29.89 1012 10 16 0.00 0.00
11:35 am 11:35 Partly Cloudy 60 15.6 44 6.4 54 54 W 15 24 29.89 1012 10 16 0.00 0.00
11:55 am 11:55 Partly Cloudy 61 16 43 6.3 53 53 W 20 31 29.90 1013 10 16 0.00 0.00
12:15 pm 12:15 Partly Cloudy 61 16.3 43 6.1 51 51 WNW 15 24 29.90 1013 10 16 0.00 0.00
12:35 pm 12:35 Mostly Cloudy 61 16.2 43 6.1 51 51 W 17 28 29.90 1013 10 16 0.00 0.00
12:55 pm 12:55 Partly Cloudy 63 17.2 42 5.7 47 47 WNW 18 30 29.90 1012 10 16 0.00 0.00
1:15 pm 13:15 Mostly Cloudy 63 17.1 42 5.4 46 46 W 20 31 29.90 1012 10 16 0.00 0.00
1:35 pm 13:35 Mostly Cloudy 64 17.7 41 4.9 43 43 NW 21 33 29.90 1012 10 16 0.00 0.00
1:55 pm 13:55 Mostly Cloudy 64 17.6 41 5.2 44 44 NW 15 24 29.88 1012 10 16 0.00 0.00
2:15 pm 14:15 Partly Cloudy 63 17.3 41 5.2 45 45 WNW 15 24 29.89 1012 10 16 0.00 0.00
2:35 pm 14:35 Partly Cloudy 64 17.5 41 5.2 44 44 W 17 28 29.88 1012 10 16 0.00 0.00
2:55 pm 14:55 Mostly Cloudy 65 18.2 41 5 42 42 WNW 16 26 29.88 1012 10 16 0.00 0.00
3:15 pm 15:15 Mostly Cloudy 65 18.1 42 5.4 43 43 W 17 28 29.88 1012 10 16 0.00 0.00
3:35 pm 15:35 Partly Cloudy 62 16.7 40 4.4 44 44 WNW 16 26 29.89 1012 10 16 0.00 0.00
3:55 pm 15:55 Partly Cloudy 64 17.5 40 4.3 42 42 WNW 15 24 29.90 1012 10 16 0.00 0.00
4:15 pm 16:15 Mostly Cloudy 65 18.5 41 4.8 40 40 WNW 14 22 29.88 1012 10 16 0.00 0.00
4:35 pm 16:35 Mostly Cloudy 64 18 40 4.4 41 41 WNW 14 22 29.89 1012 10 16 0.00 0.00
4:55 pm 16:55 Mostly Cloudy 63 17.3 40 4.2 42 42 WNW 15 24 29.90 1012 10 16 0.00 0.00
5:15 pm 17:15 Mostly Cloudy 64 17.5 40 4.6 42 42 W 17 28 29.90 1012 10 16 0.00 0.00
5:35 pm 17:35 Cloudy 64 17.5 40 4.2 41 41 NW 12 19 29.90 1012 10 16 0.00 0.00
5:55 pm 17:55 Mostly Cloudy 63 17.4 40 4.4 42 42 W 12 19 29.90 1012 10 16 0.00 0.00
6:15 pm 18:15 Mostly Cloudy 62 16.6 39 4.1 43 43 WNW 12 19 29.90 1013 10 16 0.00 0.00
6:35 pm 18:35 Mostly Cloudy 62 16.5 40 4.4 45 45 W 13 20 29.91 1013 10 16 0.00 0.00
6:55 pm 18:55 Mostly Cloudy 60 15.5 40 4.4 47 47 NW 7 11 29.91 1013 10 16 0.00 0.00
7:15 pm 19:15 Partly Cloudy 59 15 40 4.7 50 50 NW 6 9 29.92 1013 10 16 0.00 0.00
7:35 pm 19:35 Partly Cloudy 56 13.6 41 5.2 57 57 WNW 5 7 29.93 1013 10 16 0.00 0.00
7:55 pm 19:55 Partly Cloudy 55 12.6 42 5.5 62 62 WNW 3 6 29.94 1014 10 16 0.00 0.00
8:15 pm 20:15 Partly Cloudy 54 12.3 42 5.4 63 63 WNW 3 6 29.94 1014 10 16 0.00 0.00
8:35 pm 20:35 Partly Cloudy 52 11.1 42 5.6 69 69 W 5 7 29.96 1014 10 16 0.00 0.00
8:55 pm 20:55 Partly Cloudy 51 10.4 43 6 74 74 Calm 29.97 1015 10 16 0.00 0.00
9:15 pm 21:15 Partly Cloudy 51 10.4 42 5.8 73 73 W 5 7 29.97 1015 10 16 0.00 0.00
9:35 pm 21:35 Mostly Cloudy 50 10.2 43 6 75 75 Calm 29.97 1015 10 16 0.00 0.00
9:55 pm 21:55 Mostly Cloudy 49 9.5 43 6.2 80 80 W 6 9 29.98 1015 10 16 0.00 0.00
10:15 pm 22:15 Mostly Cloudy 51 10.6 42 5.6 71 71 W 6 9 29.98 1015 10 16 0.00 0.00
10:35 pm 22:35 Partly Cloudy 51 10.5 41 4.9 68 68 WNW 7 11 29.99 1016 10 16 0.00 0.00
10:55 pm 22:55 Clear 50 10 40 4.5 69 69 W 6 9 29.99 1016 10 16 0.00 0.00
11:15 pm 23:15 Partly Cloudy 49 9.2 40 4.5 72 72 W 5 7 29.99 1016 10 16 0.00 0.00
11:35 pm 23:35 Partly Cloudy 48 8.9 40 4.3 73 73 W 6 9 29.99 1016 10 16 0.00 0.00
11:55 pm 23:55 Clear 48 8.7 40 4.2 73 73 WNW 5 7 29.99 1016 10 16 0.00 0.00

Powered by AerisWeather